User: anonymous   Login
Location: Caserta
(41.0670°N, 14.3330°E)
Time: 16:45:57
(UTC+02:00)
Language:

STARLINK-1341 - Orbit

View from above orbital plane
View from above orbital plane
View from above satellite
View from above satellite

Ground track
Ground track

The orbit data is extracted from the following two-line orbital elements,

1 45534C 20025D   20225.46419350 -.00009366  00000-0 -64118-3 0  2254
2 45534  53.0014 243.0926 0001403  89.2026  54.9379 15.05607687    10
Epoch (UTC): 12 August 2020 11:08:26
Eccentricity: 0.0001403
inclination: 53.0014°
perigee height: 548 km
apogee height: 550 km
right ascension of ascending node: 243.0926°
argument of perigee: 89.2026°
revolutions per day: 15.05607687
mean anomaly at epoch: 54.9379°
orbit number at epoch: 1

The dashed part of the orbit path shows where the satellite is in the earth's shadow,  

DLR